User: anonymous   Login
Location: Unspecified
(0.0000°N, 0.0000°E)
Time: 01:11:08
(UTC+00:00)
Language:

STARLINK-5443 - Orbit

View from above orbital plane
View from above orbital plane
View from above satellite
View from above satellite

Ground track
Ground track

The orbit is defined by the following mean orbital elements,

1 54781U          26145.42532247 +.00000000 +00000-0 -26262-3 0 00007
2 54781  53.2131  44.6573 0001285  93.8750 266.2389 15.08805327    04
Epoch (UTC): 25 May 2026 10:12:27
Eccentricity: 0.0001285
inclination: 53.2131°
perigee height: 539 km
apogee height: 541 km
right ascension of ascending node: 44.6573°
argument of perigee: 93.8750°
revolutions per day: 15.08805327
mean anomaly at epoch: 266.2389°

The dashed part of the orbit path shows where the satellite is in the earth's shadow,  

DLR